Location: Lafig�re
(44.4503°N, 4.0357°E)
Time: 15:48:32
(UTC+00:00)

NOSS 3-4 (A) - Pass Details

Date: 24 September 2020
Orbit: 886 x 1326 km, 63.4° (Epoch: 22 October)

Event Time Altitude Azimuth Distance (km) Brightness Sun altitude
Rises 19:52:50 0° 225° (SW) 3,481 6.7 -24.4°
Reaches altitude 10° 19:55:18 10° 228° (SW) 2,555 5.9 -24.8°
Maximum altitude 20:01:09 66° 311° (NW) 1,002 3.7 -25.7°
Drops below altitude 10° 20:07:27 10° 34° (NE) 2,740 5.8 -26.7°
Sets 20:10:11 0° 37° (NE) 3,752 6.5 -27.2°
